Terminal Aerodrome Forecast
Issued by NWS

Home | Current Version | Previous Version | Text Only | Print | Product List | Glossary Off
Versions: 1 2 3 4 5 6 7 8 9 10 11 12 13 14 15 16 17 18

534
FTUS43 KABR 211605 AAB
TAFMBG
TAF AMD
KMBG 211605Z 2116/2212 05010KT P6SM SCT020 OVC070
     FM211900 07009KT P6SM OVC040
     FM212200 09010KT P6SM BKN060
     FM220500 12015G20KT P6SM OVC050
     FM221000 13018G25KT P6SM OVC025=

USA.gov is the U.S. government's official web portal to all federal, state and local government web resources and services.